| time (UTC) | temp C | wind direction | speed KPH | gust KPH | rain 1hr cm | rain 24hr cm | rain mn cm | humidity % | barometer mb |
| 20260510120021 | 18 | 174 | 0.0 | 4.8 | 0.00 | 0.00 | 0.00 | 89 | 1013.6 |
| 20260510115506 | 18 | 221 | 1.6 | 4.8 | 0.00 | 0.00 | 0.00 | 90 | 1013.5 |
| 20260510115003 | 18 | 183 | 0.0 | 4.8 | 0.00 | 0.00 | 0.00 | 89 | 1013.4 |
| 20260510114505 | 18 | 294 | 0.0 | 3.2 | 0.00 | 0.00 | 0.00 | 89 | 1013.3 |
| 20260510114004 | 18 | 35 | 0.0 | 1.6 | 0.00 | 0.00 | 0.00 | 89 | 1013.4 |
| 20260510113507 | 19 | 360 | 0.0 | 4.8 | 0.00 | 0.00 | 0.00 | 89 | 1013.4 |
| 20260510113020 | 19 | 66 | 0.0 | 4.8 | 0.00 | 0.00 | 0.00 | 88 | 1013.4 |
| 20260510112504 | 19 | 141 | 0.0 | 4.8 | 0.00 | 0.00 | 0.00 | 88 | 1013.4 |
| 20260510112004 | 19 | 215 | 0.0 | 4.8 | 0.00 | 0.00 | 0.00 | 88 | 1013.4 |
| 20260510111516 | 19 | 15 | 0.0 | 3.2 | 0.00 | 0.00 | 0.00 | 88 | 1013.4 |
| 20260510111011 | 19 | 296 | 0.0 | 3.2 | 0.00 | 0.00 | 0.00 | 88 | 1013.4 |
| 20260510110507 | 19 | 344 | 1.6 | 3.2 | 0.00 | 0.00 | 0.00 | 88 | 1013.5 |
| 20260510110025 | 19 | 61 | 0.0 | 4.8 | 0.00 | 0.00 | 0.00 | 87 | 1013.6 |
| 20260510105506 | 20 | 338 | 1.6 | 4.8 | 0.00 | 0.00 | 0.00 | 87 | 1013.4 |
| 20260510105008 | 20 | 172 | 1.6 | 3.2 | 0.00 | 0.00 | 0.00 | 87 | 1013.3 |
| 20260510104526 | 20 | 257 | 0.0 | 4.8 | 0.00 | 0.00 | 0.00 | 86 | 1013.3 |
| 20260510104003 | 20 | 17 | 1.6 | 4.8 | 0.00 | 0.00 | 0.00 | 86 | 1013.2 |
| 20260510103507 | 20 | 267 | 0.0 | 4.8 | 0.00 | 0.00 | 0.00 | 86 | 1013.2 |
| 20260510103007 | 20 | 6 | 1.6 | 6.4 | 0.00 | 0.00 | 0.00 | 86 | 1013.2 |
| 20260510102503 | 20 | 221 | 1.6 | 6.4 | 0.00 | 0.00 | 0.00 | 86 | 1013.2 |
| 20260510102007 | 20 | 53 | 1.6 | 3.2 | 0.00 | 0.00 | 0.00 | 86 | 1013.2 |
| 20260510101513 | 20 | 328 | 1.6 | 4.8 | 0.00 | 0.00 | 0.00 | 86 | 1013.2 |
| 20260510101012 | 20 | 64 | 0.0 | 4.8 | 0.00 | 0.00 | 0.00 | 85 | 1013.2 |
| 20260510100507 | 20 | 167 | 1.6 | 4.8 | 0.00 | 0.00 | 0.00 | 85 | 1013.3 |
| 20260510100016 | 20 | 105 | 1.6 | 6.4 | 0.00 | 0.00 | 0.00 | 84 | 1013.3 |
| 20260510095508 | 20 | 153 | 1.6 | 8.0 | 0.00 | 0.00 | 0.00 | 84 | 1013.3 |
| 20260510095007 | 20 | 159 | 1.6 | 8.0 | 0.00 | 0.00 | 0.00 | 85 | 1013.3 |
| 20260510094523 | 20 | 220 | 1.6 | 8.0 | 0.00 | 0.00 | 0.00 | 85 | 1013.3 |
| 20260510094010 | 20 | 215 | 1.6 | 8.0 | 0.00 | 0.00 | 0.00 | 85 | 1013.3 |
| 20260510093515 | 20 | 187 | 0.0 | 6.4 | 0.00 | 0.00 | 0.00 | 85 | 1013.3 |
| 20260510093024 | 20 | 216 | 0.0 | 6.4 | 0.00 | 0.00 | 0.00 | 85 | 1013.3 |
| 20260510092504 | 20 | 221 | 1.6 | 3.2 | 0.00 | 0.00 | 0.00 | 85 | 1013.3 |
| 20260510092004 | 20 | 252 | 0.0 | 3.2 | 0.00 | 0.00 | 0.00 | 85 | 1013.3 |
| 20260510091507 | 20 | 113 | 0.0 | 3.2 | 0.00 | 0.00 | 0.00 | 85 | 1013.2 |
| 20260510091004 | 20 | 105 | 0.0 | 8.0 | 0.00 | 0.00 | 0.00 | 84 | 1013.2 |
| 20260510090504 | 20 | 219 | 1.6 | 8.0 | 0.00 | 0.00 | 0.00 | 84 | 1013.2 |
| 20260510090010 | 20 | 79 | 1.6 | 8.0 | 0.00 | 0.00 | 0.00 | 84 | 1013.2 |
| 20260510085508 | 20 | 220 | 1.6 | 8.0 | 0.00 | 0.00 | 0.00 | 84 | 1013.2 |
| 20260510085005 | 20 | 118 | 0.0 | 6.4 | 0.00 | 0.00 | 0.00 | 84 | 1013.1 |
| 20260510084540 | 20 | 358 | 1.6 | 6.4 | 0.00 | 0.00 | 0.00 | 84 | 1013.1 |
| 20260510084006 | 20 | 52 | 1.6 | 6.4 | 0.00 | 0.00 | 0.00 | 84 | 1013.2 |
| 20260510083506 | 20 | 65 | 0.0 | 3.2 | 0.00 | 0.00 | 0.00 | 84 | 1013.1 |
| 20260510083021 | 20 | 101 | 0.0 | 1.6 | 0.00 | 0.00 | 0.00 | 84 | 1013.2 |
| 20260510082506 | 20 | 347 | 0.0 | 1.6 | 0.00 | 0.00 | 0.00 | 84 | 1013.2 |
| 20260510082009 | 20 | 114 | 0.0 | 1.6 | 0.00 | 0.00 | 0.00 | 83 | 1013.2 |
| 20260510081532 | 20 | 72 | 0.0 | 1.6 | 0.00 | 0.00 | 0.00 | 83 | 1013.2 |
| 20260510081003 | 21 | 113 | 0.0 | 4.8 | 0.00 | 0.00 | 0.00 | 82 | 1013.2 |
| 20260510080502 | 21 | 359 | 0.0 | 6.4 | 0.00 | 0.00 | 0.00 | 82 | 1013.2 |
| 20260510080009 | 21 | 257 | 1.6 | 6.4 | 0.00 | 0.00 | 0.00 | 83 | 1013.2 |
| 20260510075504 | 21 | 167 | 1.6 | 3.2 | 0.00 | 0.00 | 0.00 | 83 | 1013.2 |
| 20260510075007 | 21 | 28 | 0.0 | 3.2 | 0.00 | 0.00 | 0.00 | 83 | 1013.2 |
| 20260510074514 | 21 | 161 | 0.0 | 1.6 | 0.00 | 0.00 | 0.00 | 83 | 1013.2 |
| 20260510074004 | 21 | 120 | 0.0 | 3.2 | 0.00 | 0.00 | 0.00 | 83 | 1013.2 |
| 20260510073505 | 21 | 354 | 0.0 | 3.2 | 0.00 | 0.00 | 0.00 | 82 | 1013.2 |
| 20260510073025 | 21 | 49 | 0.0 | 1.6 | 0.00 | 0.00 | 0.00 | 82 | 1013.3 |
| 20260510072506 | 21 | 217 | 0.0 | 3.2 | 0.00 | 0.00 | 0.00 | 82 | 1013.3 |
| 20260510072007 | 21 | 206 | 0.0 | 6.4 | 0.00 | 0.00 | 0.00 | 81 | 1013.2 |
| 20260510071526 | 21 | 339 | 1.6 | 6.4 | 0.00 | 0.00 | 0.00 | 81 | 1013.2 |
| 20260510071006 | 21 | 92 | 1.6 | 8.0 | 0.00 | 0.00 | 0.00 | 81 | 1013.2 |
| 20260510070510 | 21 | 231 | 1.6 | 8.0 | 0.00 | 0.00 | 0.00 | 81 | 1013.2 |
| 20260510070032 | 21 | 125 | 1.6 | 6.4 | 0.00 | 0.00 | 0.00 | 81 | 1013.3 |
| 20260510065507 | 21 | 227 | 0.0 | 6.4 | 0.00 | 0.00 | 0.00 | 81 | 1013.3 |
| 20260510065008 | 21 | 186 | 1.6 | 6.4 | 0.00 | 0.00 | 0.00 | 80 | 1013.2 |
| 20260510064511 | 21 | 238 | 0.0 | 6.4 | 0.00 | 0.00 | 0.00 | 80 | 1013.2 |
| 20260510064003 | 21 | 240 | 3.2 | 6.4 | 0.00 | 0.00 | 0.00 | 80 | 1013.3 |
| 20260510063506 | 21 | 107 | 1.6 | 6.4 | 0.00 | 0.00 | 0.00 | 80 | 1013.4 |
| 20260510063022 | 21 | 145 | 1.6 | 6.4 | 0.00 | 0.00 | 0.00 | 80 | 1013.4 |
| 20260510062506 | 21 | 158 | 1.6 | 4.8 | 0.00 | 0.00 | 0.00 | 80 | 1013.4 |
| 20260510062007 | 21 | 144 | 1.6 | 3.2 | 0.00 | 0.00 | 0.00 | 80 | 1013.4 |
| 20260510061523 | 21 | 264 | 1.6 | 3.2 | 0.00 | 0.00 | 0.00 | 80 | 1013.5 |
| 20260510061006 | 21 | 129 | 0.0 | 3.2 | 0.00 | 0.00 | 0.00 | 80 | 1013.6 |
| 20260510060508 | 21 | 136 | 0.0 | 3.2 | 0.00 | 0.00 | 0.00 | 80 | 1013.6 |
| 20260510060036 | 21 | 102 | 0.0 | 3.2 | 0.00 | 0.00 | 0.00 | 80 | 1013.6 |
| 20260510055510 | 21 | 122 | 0.0 | 1.6 | 0.00 | 0.00 | 0.00 | 80 | 1013.6 |
| 20260510055013 | 21 | 121 | 0.0 | 1.6 | 0.00 | 0.00 | 0.00 | 80 | 1013.5 |
| 20260510054526 | 21 | 141 | 0.0 | 1.6 | 0.00 | 0.00 | 0.00 | 80 | 1013.5 |
| 20260510054004 | 21 | 146 | 0.0 | 1.6 | 0.00 | 0.00 | 0.00 | 79 | 1013.4 |
| 20260510053505 | 21 | 146 | 0.0 | 1.6 | 0.00 | 0.00 | 0.00 | 79 | 1013.4 |
| 20260510053011 | 21 | 146 | 0.0 | 1.6 | 0.00 | 0.00 | 0.00 | 79 | 1013.3 |
| 20260510052505 | 21 | 147 | 0.0 | 0.0 | 0.00 | 0.00 | 0.00 | 78 | 1013.3 |
| 20260510052007 | 21 | 147 | 0.0 | 0.0 | 0.00 | 0.00 | 0.00 | 78 | 1013.3 |
| 20260510051520 | 21 | 147 | 0.0 | 0.0 | 0.00 | 0.00 | 0.00 | 78 | 1013.3 |
| 20260510051008 | 21 | 147 | 0.0 | 0.0 | 0.00 | 0.00 | 0.00 | 78 | 1013.2 |
| 20260510050508 | 22 | 146 | 0.0 | 0.0 | 0.00 | 0.00 | 0.00 | 77 | 1013.2 |
| 20260510050023 | 22 | 147 | 0.0 | 0.0 | 0.00 | 0.00 | 0.00 | 77 | 1013.2 |
| 20260510045507 | 22 | 146 | 0.0 | 0.0 | 0.00 | 0.00 | 0.00 | 77 | 1013.2 |
| 20260510045012 | 22 | 146 | 0.0 | 0.0 | 0.00 | 0.00 | 0.00 | 76 | 1013.2 |
| 20260510044527 | 22 | 147 | 0.0 | 0.0 | 0.00 | 0.00 | 0.00 | 76 | 1013.1 |
| 20260510044010 | 22 | 166 | 0.0 | 1.6 | 0.00 | 0.00 | 0.00 | 76 | 1013.1 |
| 20260510043510 | 22 | 166 | 0.0 | 1.6 | 0.00 | 0.00 | 0.00 | 75 | 1013.2 |
| 20260510043028 | 22 | 119 | 0.0 | 3.2 | 0.00 | 0.00 | 0.00 | 75 | 1013.1 |
| 20260510042505 | 22 | 272 | 0.0 | 3.2 | 0.00 | 0.00 | 0.00 | 75 | 1013.0 |
| 20260510042006 | 22 | 140 | 0.0 | 3.2 | 0.00 | 0.00 | 0.00 | 75 | 1013.0 |
| 20260510041510 | 22 | 295 | 0.0 | 1.6 | 0.00 | 0.00 | 0.00 | 75 | 1012.9 |
| 20260510041003 | 22 | 268 | 0.0 | 1.6 | 0.00 | 0.00 | 0.00 | 75 | 1013.0 |
| 20260510040503 | 22 | 130 | 0.0 | 1.6 | 0.00 | 0.00 | 0.00 | 74 | 1013.0 |
| 20260510040012 | 22 | 143 | 0.0 | 1.6 | 0.00 | 0.00 | 0.00 | 74 | 1013.0 |
| 20260510035503 | 22 | 150 | 0.0 | 1.6 | 0.00 | 0.00 | 0.00 | 73 | 1012.9 |
| 20260510035005 | 22 | 148 | 0.0 | 1.6 | 0.00 | 0.00 | 0.00 | 73 | 1012.9 |
| 20260510034512 | 23 | 146 | 0.0 | 3.2 | 0.00 | 0.00 | 0.00 | 73 | 1013.0 |
| 20260510034005 | 23 | 139 | 0.0 | 3.2 | 0.00 | 0.00 | 0.00 | 72 | 1013.0 |
| 20260510033507 | 23 | 103 | 0.0 | 3.2 | 0.00 | 0.00 | 0.00 | 72 | 1012.9 |
| 20260510033007 | 23 | 165 | 0.0 | 3.2 | 0.00 | 0.00 | 0.00 | 71 | 1012.9 |
| 20260510032504 | 23 | 117 | 0.0 | 8.0 | 0.00 | 0.00 | 0.00 | 71 | 1012.9 |
| 20260510032007 | 23 | 116 | 1.6 | 11.3 | 0.00 | 0.00 | 0.00 | 70 | 1012.9 |
| 20260510031510 | 23 | 129 | 3.2 | 11.3 | 0.00 | 0.00 | 0.00 | 70 | 1012.8 |
| 20260510031004 | 23 | 123 | 1.6 | 6.4 | 0.00 | 0.00 | 0.00 | 70 | 1012.7 |
| 20260510030502 | 23 | 196 | 1.6 | 6.4 | 0.00 | 0.00 | 0.00 | 69 | 1012.7 |
| 20260510030011 | 24 | 156 | 1.6 | 12.9 | 0.00 | 0.00 | 0.00 | 69 | 1012.6 |
| 20260510025503 | 24 | 159 | 1.6 | 12.9 | 0.00 | 0.00 | 0.00 | 68 | 1012.5 |
| 20260510025003 | 24 | 150 | 1.6 | 4.8 | 0.00 | 0.00 | 0.00 | 68 | 1012.5 |
| 20260510024510 | 24 | 159 | 1.6 | 4.8 | 0.00 | 0.00 | 0.00 | 68 | 1012.5 |
| 20260510024003 | 24 | 114 | 1.6 | 4.8 | 0.00 | 0.00 | 0.00 | 68 | 1012.3 |
| 20260510023502 | 25 | 146 | 0.0 | 3.2 | 0.00 | 0.00 | 0.00 | 68 | 1012.2 |
| 20260510023013 | 25 | 148 | 1.6 | 3.2 | 0.00 | 0.00 | 0.00 | 67 | 1012.1 |
| 20260510022504 | 25 | 107 | 0.0 | 4.8 | 0.00 | 0.00 | 0.00 | 67 | 1012.1 |
| 20260510022002 | 25 | 129 | 0.0 | 6.4 | 0.00 | 0.00 | 0.00 | 67 | 1012.1 |
| 20260510021514 | 25 | 148 | 1.6 | 6.4 | 0.00 | 0.00 | 0.00 | 67 | 1012.0 |
| 20260510021001 | 25 | 110 | 0.0 | 3.2 | 0.00 | 0.00 | 0.00 | 67 | 1011.9 |
| 20260510020505 | 25 | 172 | 0.0 | 3.2 | 0.00 | 0.00 | 0.00 | 67 | 1011.8 |
| 20260510020014 | 25 | 127 | 0.0 | 4.8 | 0.00 | 0.00 | 0.00 | 67 | 1011.7 |
| 20260510015507 | 26 | 129 | 1.6 | 4.8 | 0.00 | 0.00 | 0.00 | 67 | 1011.6 |
| 20260510015002 | 26 | 167 | 1.6 | 3.2 | 0.00 | 0.00 | 0.00 | 66 | 1011.5 |
| 20260510014514 | 26 | 124 | 1.6 | 6.4 | 0.00 | 0.00 | 0.00 | 65 | 1011.4 |
| 20260510014003 | 26 | 114 | 1.6 | 9.7 | 0.00 | 0.00 | 0.00 | 64 | 1011.3 |
| 20260510013503 | 26 | 139 | 1.6 | 11.3 | 0.00 | 0.00 | 0.00 | 63 | 1011.2 |
| 20260510013014 | 27 | 102 | 6.4 | 14.5 | 0.00 | 0.00 | 0.00 | 62 | 1011.1 |
| 20260510012504 | 27 | 94 | 6.4 | 14.5 | 0.00 | 0.00 | 0.00 | 61 | 1011.0 |
| 20260510012004 | 27 | 96 | 4.8 | 11.3 | 0.00 | 0.00 | 0.00 | 58 | 1011.0 |
| 20260510011515 | 28 | 113 | 3.2 | 8.0 | 0.00 | 0.00 | 0.00 | 53 | 1010.9 |
| 20260510011004 | 28 | 115 | 0.0 | 0.0 | 0.00 | 0.00 | 0.00 | 48 | 1010.8 |
| 20260510010504 | 28 | 166 | 0.0 | 0.0 | 0.00 | 0.00 | 0.00 | 47 | 1010.7 |
| 20260510010011 | 28 | 167 | 0.0 | 0.0 | 0.00 | 0.00 | 0.00 | 46 | 1010.7 |
| 20260510005507 | 28 | 167 | 0.0 | 0.0 | 0.00 | 0.00 | 0.00 | 45 | 1010.7 |
| 20260510005009 | 28 | 167 | 0.0 | 0.0 | 0.00 | 0.00 | 0.00 | 45 | 1010.7 |
| 20260510004513 | 29 | 167 | 0.0 | 3.2 | 0.00 | 0.00 | 0.00 | 45 | 1010.5 |
| 20260510004004 | 29 | 120 | 0.0 | 3.2 | 0.00 | 0.00 | 0.00 | 45 | 1010.5 |
| 20260510003503 | 30 | 146 | 0.0 | 3.2 | 0.00 | 0.00 | 0.00 | 44 | 1010.5 |
| 20260510003013 | 30 | 162 | 0.0 | 3.2 | 0.00 | 0.00 | 0.00 | 45 | 1010.4 |
| 20260510002508 | 30 | 162 | 0.0 | 3.2 | 0.00 | 0.00 | 0.00 | 45 | 1010.4 |
| 20260510002009 | 30 | 146 | 0.0 | 1.6 | 0.00 | 0.00 | 0.00 | 44 | 1010.5 |
| 20260510001514 | 30 | 152 | 0.0 | 3.2 | 0.00 | 0.00 | 0.00 | 44 | 1010.4 |
| 20260510001006 | 30 | 152 | 0.0 | 4.8 | 0.00 | 0.00 | 0.00 | 44 | 1010.3 |
| 20260510000506 | 31 | 118 | 0.0 | 4.8 | 0.00 | 0.00 | 0.00 | 44 | 1010.3 |
| 20260510000016 | 31 | 167 | 1.6 | 4.8 | 0.00 | 0.00 | 0.00 | 43 | 1010.3 |
| 20260509235502 | 31 | 161 | 1.6 | 6.4 | 0.00 | 0.00 | 0.00 | 42 | 1010.3 |
| 20260509235005 | 31 | 127 | 1.6 | 6.4 | 0.00 | 0.00 | 0.00 | 43 | 1010.2 |
| 20260509234522 | 31 | 127 | 1.6 | 6.4 | 0.00 | 0.00 | 0.00 | 42 | 1010.3 |
| 20260509234007 | 31 | 141 | 0.0 | 6.4 | 0.00 | 0.00 | 0.00 | 42 | 1010.2 |
| 20260509233505 | 32 | 140 | 1.6 | 4.8 | 0.00 | 0.00 | 0.00 | 42 | 1010.2 |
| 20260509233013 | 32 | 123 | 1.6 | 4.8 | 0.00 | 0.00 | 0.00 | 42 | 1010.2 |
| 20260509232507 | 32 | 181 | 3.2 | 4.8 | 0.00 | 0.00 | 0.00 | 40 | 1010.2 |
| 20260509232007 | 32 | 143 | 0.0 | 4.8 | 0.00 | 0.00 | 0.00 | 41 | 1010.2 |
| 20260509231514 | 32 | 117 | 0.0 | 6.4 | 0.00 | 0.00 | 0.00 | 40 | 1010.2 |
| 20260509231007 | 32 | 214 | 3.2 | 6.4 | 0.00 | 0.00 | 0.00 | 40 | 1010.2 |
| 20260509230508 | 32 | 150 | 1.6 | 4.8 | 0.00 | 0.00 | 0.00 | 40 | 1010.1 |
| 20260509230016 | 32 | 224 | 1.6 | 8.0 | 0.00 | 0.00 | 0.00 | 41 | 1010.2 |
| 20260509225504 | 32 | 134 | 1.6 | 8.0 | 0.00 | 0.00 | 0.00 | 40 | 1010.2 |
| 20260509225005 | 32 | 120 | 0.0 | 4.8 | 0.00 | 0.00 | 0.00 | 40 | 1010.1 |
| 20260509224516 | 32 | 323 | 1.6 | 4.8 | 0.00 | 0.00 | 0.00 | 38 | 1010.2 |
| 20260509224002 | 32 | 135 | 0.0 | 4.8 | 0.00 | 0.00 | 0.00 | 38 | 1010.2 |
| 20260509223507 | 32 | 18 | 0.0 | 4.8 | 0.00 | 0.00 | 0.00 | 41 | 1010.2 |
| 20260509223016 | 32 | 308 | 1.6 | 4.8 | 0.00 | 0.00 | 0.00 | 39 | 1010.3 |
| 20260509222506 | 32 | 313 | 1.6 | 4.8 | 0.00 | 0.00 | 0.00 | 39 | 1010.3 |
| 20260509222008 | 33 | 272 | 1.6 | 3.2 | 0.00 | 0.00 | 0.00 | 38 | 1010.3 |
| 20260509221515 | 32 | 321 | 0.0 | 6.4 | 0.00 | 0.00 | 0.00 | 43 | 1010.3 |
| 20260509221007 | 32 | 66 | 1.6 | 6.4 | 0.00 | 0.00 | 0.00 | 43 | 1010.3 |
| 20260509220508 | 32 | 103 | 0.0 | 6.4 | 0.00 | 0.00 | 0.00 | 41 | 1010.3 |
| 20260509220016 | 32 | 137 | 3.2 | 6.4 | 0.00 | 0.00 | 0.00 | 41 | 1010.4 |
| 20260509215508 | 32 | 300 | 0.0 | 6.4 | 0.00 | 0.00 | 0.00 | 42 | 1010.3 |
| 20260509215005 | 32 | 274 | 0.0 | 11.3 | 0.00 | 0.00 | 0.00 | 41 | 1010.4 |
| 20260509214520 | 32 | 179 | 4.8 | 11.3 | 0.00 | 0.00 | 0.00 | 45 | 1010.4 |
| 20260509214010 | 32 | 140 | 1.6 | 9.7 | 0.00 | 0.00 | 0.00 | 47 | 1010.4 |
| 20260509213506 | 32 | 173 | 3.2 | 8.0 | 0.00 | 0.00 | 0.00 | 45 | 1010.5 |
| 20260509213018 | 32 | 260 | 4.8 | 8.0 | 0.00 | 0.00 | 0.00 | 45 | 1010.5 |
| 20260509212502 | 31 | 316 | 3.2 | 6.4 | 0.00 | 0.00 | 0.00 | 43 | 1010.6 |
| 20260509212007 | 32 | 343 | 1.6 | 6.4 | 0.00 | 0.00 | 0.00 | 44 | 1010.7 |
| 20260509211513 | 31 | 149 | 1.6 | 8.0 | 0.00 | 0.00 | 0.00 | 47 | 1010.7 |
| 20260509211010 | 31 | 227 | 3.2 | 9.7 | 0.00 | 0.00 | 0.00 | 49 | 1010.8 |
| 20260509210507 | 31 | 291 | 1.6 | 9.7 | 0.00 | 0.00 | 0.00 | 50 | 1010.8 |
| 20260509210024 | 31 | 229 | 1.6 | 8.0 | 0.00 | 0.00 | 0.00 | 48 | 1010.9 |
| 20260509205506 | 31 | 324 | 1.6 | 8.0 | 0.00 | 0.00 | 0.00 | 50 | 1011.0 |
| 20260509205007 | 31 | 322 | 1.6 | 8.0 | 0.00 | 0.00 | 0.00 | 48 | 1011.1 |
| 20260509204518 | 31 | 299 | 3.2 | 8.0 | 0.00 | 0.00 | 0.00 | 50 | 1011.2 |
| 20260509204008 | 31 | 316 | 1.6 | 12.9 | 0.00 | 0.00 | 0.00 | 52 | 1011.2 |
| 20260509203507 | 31 | 289 | 1.6 | 12.9 | 0.00 | 0.00 | 0.00 | 51 | 1011.2 |
| 20260509203021 | 31 | 293 | 3.2 | 11.3 | 0.00 | 0.00 | 0.00 | 52 | 1011.2 |
| 20260509202506 | 30 | 281 | 1.6 | 8.0 | 0.00 | 0.00 | 0.00 | 51 | 1011.3 |
| 20260509202008 | 31 | 108 | 1.6 | 6.4 | 0.00 | 0.00 | 0.00 | 50 | 1011.3 |
| 20260509201518 | 30 | 340 | 3.2 | 9.7 | 0.00 | 0.00 | 0.00 | 49 | 1011.6 |
| 20260509201006 | 30 | 218 | 3.2 | 9.7 | 0.00 | 0.00 | 0.00 | 51 | 1011.6 |
| 20260509200508 | 30 | 203 | 1.6 | 4.8 | 0.00 | 0.00 | 0.00 | 54 | 1011.8 |
| 20260509200016 | 30 | 203 | 1.6 | 6.4 | 0.00 | 0.00 | 0.00 | 54 | 1011.9 |
| 20260509195511 | 30 | 169 | 0.0 | 6.4 | 0.00 | 0.00 | 0.00 | 54 | 1011.9 |
| 20260509195007 | 30 | 276 | 1.6 | 8.0 | 0.00 | 0.00 | 0.00 | 52 | 1012.0 |
| 20260509194524 | 30 | 343 | 1.6 | 8.0 | 0.00 | 0.00 | 0.00 | 53 | 1012.1 |
| 20260509194008 | 31 | 83 | 1.6 | 8.0 | 0.00 | 0.00 | 0.00 | 49 | 1012.2 |
| 20260509193514 | 31 | 140 | 1.6 | 6.4 | 0.00 | 0.00 | 0.00 | 53 | 1012.3 |
| 20260509193022 | 30 | 60 | 1.6 | 9.7 | 0.00 | 0.00 | 0.00 | 55 | 1012.4 |
| 20260509192510 | 30 | 200 | 3.2 | 9.7 | 0.00 | 0.00 | 0.00 | 52 | 1012.4 |
| 20260509192007 | 30 | 234 | 1.6 | 6.4 | 0.00 | 0.00 | 0.00 | 55 | 1012.4 |
| 20260509191520 | 30 | 160 | 1.6 | 6.4 | 0.00 | 0.00 | 0.00 | 55 | 1012.4 |
| 20260509191007 | 30 | 297 | 1.6 | 9.7 | 0.00 | 0.00 | 0.00 | 54 | 1012.4 |
| 20260509190508 | 30 | 295 | 1.6 | 9.7 | 0.00 | 0.00 | 0.00 | 53 | 1012.4 |
| 20260509190020 | 30 | 194 | 3.2 | 9.7 | 0.00 | 0.00 | 0.00 | 56 | 1012.5 |
| 20260509185506 | 30 | 26 | 3.2 | 9.7 | 0.00 | 0.00 | 0.00 | 55 | 1012.6 |
| 20260509185007 | 30 | 42 | 3.2 | 9.7 | 0.00 | 0.00 | 0.00 | 58 | 1012.6 |
| 20260509184532 | 30 | 117 | 3.2 | 9.7 | 0.00 | 0.00 | 0.00 | 59 | 1012.6 |
| 20260509184009 | 30 | 255 | 3.2 | 6.4 | 0.00 | 0.00 | 0.00 | 57 | 1012.8 |
| 20260509183510 | 30 | 219 | 1.6 | 8.0 | 0.00 | 0.00 | 0.00 | 57 | 1012.7 |
| 20260509183024 | 30 | 219 | 3.2 | 11.3 | 0.00 | 0.00 | 0.00 | 58 | 1012.8 |
| 20260509182505 | 29 | 263 | 3.2 | 11.3 | 0.00 | 0.00 | 0.00 | 62 | 1013.0 |
| 20260509182008 | 29 | 153 | 3.2 | 11.3 | 0.00 | 0.00 | 0.00 | 60 | 1013.0 |
| 20260509181521 | 29 | 277 | 3.2 | 11.3 | 0.00 | 0.00 | 0.00 | 59 | 1013.1 |
| 20260509181011 | 29 | 185 | 3.2 | 8.0 | 0.00 | 0.00 | 0.00 | 60 | 1013.1 |
| 20260509180506 | 28 | 304 | 1.6 | 6.4 | 0.00 | 0.00 | 0.00 | 63 | 1013.2 |
| 20260509180024 | 28 | 314 | 3.2 | 8.0 | 0.00 | 0.00 | 0.00 | 64 | 1013.3 |
| 20260509175510 | 28 | 252 | 1.6 | 8.0 | 0.00 | 0.00 | 0.00 | 64 | 1013.4 |
| 20260509175008 | 28 | 1 | 3.2 | 6.4 | 0.00 | 0.00 | 0.00 | 63 | 1013.4 |
| 20260509174520 | 27 | 202 | 0.0 | 8.0 | 0.00 | 0.00 | 0.00 | 67 | 1013.4 |
| 20260509174007 | 27 | 326 | 0.0 | 8.0 | 0.00 | 0.00 | 0.00 | 67 | 1013.5 |
| 20260509173509 | 27 | 88 | 1.6 | 8.0 | 0.00 | 0.00 | 0.00 | 66 | 1013.5 |
| 20260509173018 | 27 | 219 | 1.6 | 9.7 | 0.00 | 0.00 | 0.00 | 67 | 1013.5 |
| 20260509172506 | 28 | 270 | 1.6 | 9.7 | 0.00 | 0.00 | 0.00 | 66 | 1013.6 |
| 20260509172003 | 28 | 226 | 3.2 | 9.7 | 0.00 | 0.00 | 0.00 | 66 | 1013.6 |
| 20260509171502 | 28 | 311 | 1.6 | 8.0 | 0.00 | 0.00 | 0.00 | 68 | 1013.6 |
| 20260509171001 | 27 | 146 | 3.2 | 8.0 | 0.00 | 0.00 | 0.00 | 70 | 1013.7 |
| 20260509170502 | 26 | 191 | 1.6 | 8.0 | 0.00 | 0.00 | 0.00 | 73 | 1013.7 |
| 20260509170008 | 26 | 108 | 0.0 | 6.4 | 0.00 | 0.00 | 0.00 | 74 | 1013.8 |
| 20260509165502 | 26 | 252 | 1.6 | 9.7 | 0.00 | 0.00 | 0.00 | 73 | 1013.8 |
| 20260509165007 | 26 | 278 | 0.0 | 9.7 | 0.00 | 0.00 | 0.00 | 73 | 1013.9 |
| 20260509164511 | 26 | 245 | 1.6 | 9.7 | 0.00 | 0.00 | 0.00 | 72 | 1013.9 |
| 20260509164004 | 27 | 165 | 3.2 | 9.7 | 0.00 | 0.00 | 0.00 | 70 | 1013.9 |
| 20260509163505 | 26 | 133 | 3.2 | 9.7 | 0.00 | 0.00 | 0.00 | 73 | 1013.7 |
| 20260509163023 | 26 | 200 | 3.2 | 8.0 | 0.00 | 0.00 | 0.00 | 73 | 1013.8 |
| 20260509162508 | 25 | 26 | 3.2 | 8.0 | 0.00 | 0.00 | 0.00 | 76 | 1013.9 |
| 20260509162007 | 25 | 119 | 0.0 | 4.8 | 0.00 | 0.00 | 0.00 | 79 | 1013.9 |
| 20260509161516 | 25 | 180 | 1.6 | 6.4 | 0.00 | 0.00 | 0.00 | 80 | 1013.8 |
| 20260509161008 | 24 | 281 | 0.0 | 6.4 | 0.00 | 0.00 | 0.00 | 80 | 1013.9 |
| 20260509160503 | 24 | 148 | 1.6 | 8.0 | 0.00 | 0.00 | 0.00 | 80 | 1014.2 |
| 20260509160004 | 24 | 133 | 1.6 | 8.0 | 0.00 | 0.00 | 0.00 | 81 | 1014.0 |
| 20260509155502 | 24 | 89 | 1.6 | 3.2 | 0.00 | 0.00 | 0.00 | 82 | 1014.0 |
| 20260509155002 | 24 | 124 | 1.6 | 6.4 | 0.00 | 0.00 | 0.00 | 81 | 1014.2 |
| 20260509154508 | 23 | 150 | 0.0 | 6.4 | 0.00 | 0.00 | 0.00 | 81 | 1014.2 |
| 20260509154008 | 23 | 117 | 3.2 | 6.4 | 0.00 | 0.00 | 0.00 | 82 | 1014.1 |
| 20260509153503 | 23 | 138 | 3.2 | 6.4 | 0.00 | 0.00 | 0.00 | 82 | 1014.0 |
| 20260509153015 | 23 | 154 | 1.6 | 11.3 | 0.00 | 0.00 | 0.00 | 83 | 1013.9 |
| 20260509152504 | 23 | 32 | 1.6 | 11.3 | 0.00 | 0.00 | 0.00 | 84 | 1013.8 |
| 20260509152009 | 22 | 222 | 1.6 | 11.3 | 0.00 | 0.00 | 0.00 | 85 | 1013.6 |
| 20260509151516 | 22 | 116 | 3.2 | 12.9 | 0.00 | 0.00 | 0.00 | 86 | 1013.6 |
| 20260509151005 | 22 | 244 | 3.2 | 12.9 | 0.00 | 0.00 | 0.00 | 85 | 1013.5 |
| 20260509150508 | 22 | 339 | 1.6 | 8.0 | 0.00 | 0.00 | 0.00 | 86 | 1013.4 |
| 20260509150022 | 22 | 167 | 3.2 | 8.0 | 0.00 | 0.00 | 0.00 | 86 | 1013.6 |
| 20260509145507 | 22 | 160 | 3.2 | 9.7 | 0.00 | 0.00 | 0.00 | 85 | 1013.6 |
| 20260509145002 | 22 | 152 | 1.6 | 9.7 | 0.00 | 0.00 | 0.00 | 87 | 1013.4 |
| 20260509144506 | 22 | 143 | 4.8 | 9.7 | 0.00 | 0.00 | 0.00 | 86 | 1013.2 |
| 20260509144002 | 22 | 159 | 1.6 | 8.0 | 0.00 | 0.00 | 0.00 | 89 | 1013.2 |
| 20260509143503 | 21 | 195 | 1.6 | 8.0 | 0.00 | 0.00 | 0.00 | 90 | 1013.2 |
| 20260509143007 | 21 | 177 | 0.0 | 6.4 | 0.00 | 0.00 | 0.00 | 92 | 1013.4 |
| 20260509142503 | 20 | 298 | 1.6 | 12.9 | 0.00 | 0.00 | 0.00 | 93 | 1013.6 |
| 20260509142009 | 20 | 229 | 3.2 | 12.9 | 0.00 | 0.00 | 0.00 | 94 | 1013.1 |
| 20260509141530 | 20 | 136 | 4.8 | 8.0 | 0.00 | 0.00 | 0.00 | 95 | 1013.0 |
| 20260509141008 | 20 | 133 | 1.6 | 4.8 | 0.00 | 0.00 | 0.00 | 95 | 1013.5 |
| 20260509140508 | 20 | 322 | 0.0 | 6.4 | 0.00 | 0.00 | 0.00 | 95 | 1013.7 |
| 20260509140017 | 20 | 21 | 1.6 | 6.4 | 0.00 | 0.00 | 0.00 | 95 | 1013.6 |
| 20260509135507 | 20 | 304 | 1.6 | 9.7 | 0.00 | 0.00 | 0.00 | 95 | 1013.7 |
| 20260509135011 | 19 | 338 | 4.8 | 9.7 | 0.00 | 0.00 | 0.00 | 95 | 1013.8 |
| 20260509134515 | 19 | 357 | 3.2 | 4.8 | 0.00 | 0.00 | 0.00 | 95 | 1013.8 |
| 20260509134006 | 19 | 322 | 1.6 | 3.2 | 0.00 | 0.00 | 0.00 | 96 | 1013.8 |
| 20260509133503 | 19 | 11 | 1.6 | 3.2 | 0.00 | 0.00 | 0.00 | 96 | 1013.8 |
| 20260509133006 | 19 | 23 | 0.0 | 3.2 | 0.00 | 0.00 | 0.00 | 96 | 1013.6 |
| 20260509132505 | 19 | 23 | 0.0 | 8.0 | 0.00 | 0.00 | 0.00 | 96 | 1013.5 |
| 20260509132007 | 19 | 34 | 3.2 | 8.0 | 0.00 | 0.00 | 0.00 | 96 | 1013.7 |
| 20260509131510 | 19 | 96 | 0.0 | 3.2 | 0.00 | 0.00 | 0.00 | 96 | 1013.5 |
| 20260509131010 | 19 | 113 | 1.6 | 3.2 | 0.00 | 0.00 | 0.00 | 96 | 1013.4 |
| 20260509130509 | 19 | 138 | 0.0 | 6.4 | 0.00 | 0.00 | 0.00 | 96 | 1013.4 |
| 20260509130016 | 19 | 80 | 1.6 | 8.0 | 0.00 | 0.00 | 0.00 | 96 | 1013.4 |
| 20260509125509 | 19 | 32 | 3.2 | 9.7 | 0.00 | 0.00 | 0.00 | 96 | 1013.4 |
| 20260509125012 | 19 | 342 | 1.6 | 9.7 | 0.00 | 0.00 | 0.00 | 96 | 1013.3 |
| 20260509124526 | 19 | 66 | 6.4 | 9.7 | 0.00 | 0.00 | 0.00 | 96 | 1013.2 |
| 20260509124007 | 19 | 16 | 3.2 | 6.4 | 0.00 | 0.00 | 0.00 | 96 | 1013.2 |
| 20260509123506 | 19 | 352 | 1.6 | 8.0 | 0.00 | 0.00 | 0.00 | 96 | 1013.3 |
| 20260509123021 | 19 | 20 | 3.2 | 8.0 | 0.00 | 0.00 | 0.00 | 96 | 1013.3 |
| 20260509122508 | 19 | 2 | 4.8 | 8.0 | 0.00 | 0.00 | 0.00 | 96 | 1013.3 |
| 20260509122003 | 19 | 18 | 3.2 | 8.0 | 0.00 | 0.00 | 0.00 | 96 | 1013.4 |
| 20260509121509 | 19 | 18 | 4.8 | 8.0 | 0.00 | 0.00 | 0.00 | 96 | 1013.7 |
| 20260509121003 | 19 | 357 | 3.2 | 6.4 | 0.00 | 0.00 | 0.00 | 96 | 1013.7 |
| 20260509120504 | 19 | 109 | 0.0 | 11.3 | 0.00 | 0.00 | 0.00 | 96 | 1013.4 |